This demonstration page uses our WeatherBlox Daily Observations layout. Learn more.

Left ArrowRight Arrow

39.51506, -84.39828

Hourly Observations for March 5, 2016

Temp ( °F °C ) Dew Point ( °F °C ) Humidity (%) Winds ( mph kmh ) Pressure ( in mb ) Visibility ( mi km ) Precip ( " mm )
12:15 am 00:15 Partly Cloudy 30 -1.1 26 -3.2 86 86 WSW 3 6 30.21 1023 7 11 0.00 0.00
12:35 am 00:35 Partly Cloudy 32 0.2 29 -1.9 86 86 Calm 30.21 1023 10 16 0.00 0.00
12:55 am 00:55 Partly Cloudy 29 -1.5 25 -3.7 85 85 Calm 30.21 1023 10 16 0.00 0.00
1:15 am 01:15 Mostly Cloudy 32 0 28 -2.1 86 86 Calm 30.21 1023 7 11 0.00 0.00
1:35 am 01:35 Mostly Cloudy 32 0.1 29 -1.9 87 87 Calm 30.21 1023 7 11 0.00 0.00
1:55 am 01:55 Mostly Cloudy with Mist and Fog 32 0 28 -2.1 86 86 Calm 30.21 1023 5 8 0.00 0.00
2:15 am 02:15 Cloudy 32 0 28 -2 87 87 Calm 30.21 1023 7 11 0.00 0.00
2:35 am 02:35 Cloudy 34 1.2 31 -0.7 87 87 Calm 30.21 1023 7 11 0.00 0.00
2:55 am 02:55 Mostly Cloudy 34 1.2 30 -1 85 85 Calm 30.18 1022 10 16 0.00 0.00
3:15 am 03:15 Cloudy 34 1.2 31 -0.8 87 87 Calm 30.21 1023 7 11 0.00 0.00
3:35 am 03:35 Cloudy 34 1.2 30 -1.1 85 85 Calm 30.18 1022 10 16 0.00 0.00
3:55 am 03:55 Cloudy 34 1.2 30 -1.2 84 84 Calm 30.18 1022 10 16 0.00 0.00
4:15 am 04:15 Cloudy 34 1.2 30 -1.2 84 84 Calm 30.18 1022 7 11 0.00 0.00
4:35 am 04:35 Cloudy 34 1.2 28 -2.1 79 79 SSW 6 9 30.18 1022 10 16 0.00 0.00
4:55 am 04:55 Cloudy 34 1.2 28 -2 79 79 S 5 7 30.15 1021 10 16 0.00 0.00
5:15 am 05:15 Cloudy 34 1.2 28 -2 79 79 S 6 9 30.15 1021 10 16 0.00 0.00
5:35 am 05:35 Cloudy 34 1.2 29 -1.8 81 81 SSW 5 7 30.15 1021 10 16 0.00 0.00
5:55 am 05:55 Cloudy 34 1.2 28 -2 79 79 SSW 3 6 30.15 1021 10 16 0.00 0.00
6:15 am 06:15 Cloudy 34 1.2 28 -2 79 79 Calm 30.15 1021 10 16 0.00 0.00
6:35 am 06:35 Cloudy 35 1.4 28 -2 78 78 Calm 30.15 1021 10 16 0.00 0.00
6:55 am 06:55 Cloudy 36 2 30 -1.3 79 79 SSW 3 6 30.15 1021 10 16 0.00 0.00
7:15 am 07:15 Cloudy 37 2.6 31 -0.6 80 80 SSW 7 11 30.15 1021 10 16 0.00 0.00
7:35 am 07:35 Cloudy 37 2.6 31 -0.6 80 80 SSW 5 7 30.15 1021 10 16 0.00 0.00
7:55 am 07:55 Cloudy 37 2.6 31 -0.5 80 80 SSW 5 7 30.15 1021 10 16 0.00 0.00
8:15 am 08:15 Cloudy 37 2.6 31 -0.5 80 80 SSW 7 11 30.15 1021 7 11 0.00 0.00
8:35 am 08:35 Cloudy 37 2.6 31 -0.6 80 80 S 8 13 30.15 1021 7 11 0.00 0.00
8:55 am 08:55 Cloudy 37 2.8 31 -0.4 80 80 S 5 7 30.15 1021 10 16 0.00 0.00
9:15 am 09:15 Cloudy 39 4 33 0.3 77 77 S 7 11 30.15 1021 7 11 0.00 0.00
9:35 am 09:35 Cloudy 39 4 32 0.2 77 77 SSW 6 9 30.15 1021 7 11 0.00 0.00
9:55 am 09:55 Cloudy 39 4 32 0.1 76 76 S 8 13 30.12 1020 10 16 0.00 0.00
10:15 am 10:15 Cloudy 40 4.7 33 0.6 75 75 SSW 12 19 30.09 1019 10 16 0.00 0.00
10:35 am 10:35 Cloudy 40 4.5 33 0.4 75 75 SSW 9 15 30.09 1019 10 16 0.00 0.00
10:55 am 10:55 Cloudy 40 4.7 33 0.5 74 74 SSW 10 17 30.09 1019 10 16 0.00 0.00
11:15 am 11:15 Cloudy 42 5.5 34 1 73 73 SSW 10 17 30.09 1019 10 16 0.00 0.00
11:35 am 11:35 Cloudy 42 5.3 34 0.9 74 74 SW 8 13 30.09 1019 10 16 0.00 0.00
11:55 am 11:55 Cloudy 42 5.5 34 1.1 74 74 SW 10 17 30.09 1019 10 16 0.00 0.00
12:15 pm 12:15 Cloudy 42 5.5 34 1.1 74 74 WSW 9 15 30.09 1019 10 16 0.00 0.00
12:35 pm 12:35 Cloudy 42 5.5 34 1 73 73 WSW 7 11 30.09 1019 10 16 0.00 0.00
12:55 pm 12:55 Cloudy 40 4.7 33 0.7 76 76 WSW 8 13 30.09 1019 10 16 0.00 0.00
1:15 pm 13:15 Cloudy 40 4.7 33 0.7 76 76 WSW 8 13 30.06 1018 10 16 0.00 0.00
1:35 pm 13:35 Cloudy 40 4.7 34 1 77 77 WSW 6 9 30.06 1018 7 11 0.00 0.00
1:55 pm 13:55 Cloudy 40 4.7 34 1.2 78 78 WSW 6 9 30.06 1018 7 11 0.00 0.00
2:15 pm 14:15 Cloudy 40 4.7 34 1.2 78 78 WSW 5 7 30.06 1018 7 11 0.00 0.00
2:35 pm 14:35 Cloudy 40 4.7 34 1.1 78 78 Calm 30.06 1018 7 11 0.00 0.00
2:55 pm 14:55 Cloudy 41 5.1 35 1.5 78 78 WNW 7 11 30.06 1018 7 11 0.00 0.00
3:15 pm 15:15 Cloudy with Haze 41 5 34 1 76 76 WNW 8 13 30.06 1018 5 8 0.00 0.00
3:35 pm 15:35 Cloudy with Haze 40 4.7 34 1 77 77 NW 8 13 30.09 1019 5 8 0.00 0.00
3:55 pm 15:55 Cloudy with Haze 41 4.9 34 1.1 77 77 NW 6 9 30.09 1019 5 8 0.00 0.00
4:15 pm 16:15 Cloudy with Haze 42 5.4 35 1.5 76 76 WNW 6 9 30.09 1019 5 8 0.00 0.00
4:35 pm 16:35 Cloudy with Haze 42 5.5 35 1.5 76 76 WNW 7 11 30.09 1019 5 8 0.00 0.00
4:55 pm 16:55 Cloudy with Haze 42 5.5 35 1.6 76 76 WNW 3 6 30.09 1019 5 8 0.00 0.00
5:15 pm 17:15 Cloudy with Haze 42 5.5 35 1.5 76 76 Calm 30.09 1019 5 8 0.00 0.00
5:35 pm 17:35 Cloudy with Haze 42 5.5 34 1.3 75 75 WNW 3 6 30.09 1019 5 8 0.00 0.00
5:55 pm 17:55 Cloudy with Haze 42 5.5 35 1.5 76 76 Calm 30.12 1020 5 8 0.00 0.00
6:15 pm 18:15 Cloudy with Haze 42 5.5 34 1.1 74 74 NNW 3 6 30.12 1020 5 8 0.00 0.00
6:35 pm 18:35 Cloudy 42 5.5 34 1.2 74 74 NW 3 6 30.15 1021 7 11 0.00 0.00
6:55 pm 18:55 Cloudy 42 5.4 35 1.5 76 76 NW 3 6 30.15 1021 7 11 0.00 0.00
7:15 pm 19:15 Cloudy with Haze 41 5.1 35 1.6 78 78 Calm 30.15 1021 5 8 0.00 0.00
7:35 pm 19:35 Cloudy with Haze 40 4.7 35 1.5 80 80 Calm 30.15 1021 5 8 0.00 0.00
7:55 pm 19:55 Cloudy with Haze 40 4.7 35 1.7 81 81 Calm 30.21 1023 5 8 0.00 0.00
8:15 pm 20:15 Cloudy with Haze 40 4.7 35 1.5 80 80 N 3 6 30.21 1023 5 8 0.00 0.00
8:35 pm 20:35 Cloudy with Haze 40 4.7 35 1.6 81 81 N 5 7 30.21 1023 5 8 0.00 0.00
8:55 pm 20:55 Cloudy with Haze 40 4.7 35 1.5 80 80 NNW 7 11 30.21 1023 5 8 0.00 0.00
9:15 pm 21:15 Cloudy 40 4.7 34 1 77 77 NNW 9 15 30.24 1024 7 11 0.00 0.00
9:35 pm 21:35 Cloudy 40 4.7 33 0.7 76 76 N 8 13 30.24 1024 7 11 0.00 0.00
9:55 pm 21:55 Cloudy with Haze 40 4.2 33 0.5 77 77 NNW 12 19 30.24 1024 5 8 0.00 0.00
10:15 pm 22:15 Cloudy with Haze 39 4 33 0.5 78 78 N 8 13 30.27 1025 5 8 0.00 0.00
10:35 pm 22:35 Cloudy 39 4 32 0.1 76 76 NNW 7 11 30.27 1025 7 11 0.00 0.00
10:55 pm 22:55 Cloudy 39 4 33 0.4 78 78 NNW 6 9 30.27 1025 7 11 0.00 0.00
11:15 pm 23:15 Cloudy 39 4 33 0.3 77 77 N 7 11 30.27 1025 7 11 0.00 0.00
11:35 pm 23:35 Cloudy 39 4 33 0.3 77 77 NNW 5 7 30.27 1025 7 11 0.00 0.00
11:55 pm 23:55 Cloudy 39 4 33 0.4 78 78 NNW 7 11 30.27 1025 7 11 0.00 0.00

Powered by AerisWeather